Weather History for Montauk, NY

Change the Weather History Date:

Friday, November 1, 2013

  Actual Average (KHTO) Record (KHTO)
Temperature  
Mean Temperature 64 °F -  
Max Temperature 66 °F 58 °F 73 °F (1950)
Min Temperature 61 °F 40 °F 24 °F (1975)
Degree Days  
Heating Degree Days 2    
Growing Degree Days 14 (Base 50)    
Moisture  
Dew Point 59 °F    
Average Humidity 87    
Maximum Humidity 93    
Minimum Humidity 80    
Precipitation  
Precipitation 0.03 in - - ()
Sea Level Pressure  
Sea Level Pressure 29.68 in    
Wind  
Wind Speed 13 mph (SSW)    
Max Wind Speed 17 mph    
Max Gust Speed 32 mph    
Averages and records for this station are not official NWS values.
T = Trace of Precipitation, MM = Missing Value Source: NWS Daily Summary

Daily Weather History Graph

Daily Weather History Graph

Search for Another Location

Airport:

Trip Planner

Search our weather history database for the weather conditions in past years. The results will help you decide how hot, cold, wet, or windy it might be!

Date:

Astronomy

Nov. 01, 2013 Rise Set
Actual Time 7:18 AM EDT 5:43 PM EDT
Civil Twilight 6:50 AM EDT 6:11 PM EDT
Nautical Twilight 6:17 AM EDT 6:44 PM EDT
Astronomical Twilight 5:45 AM EDT 7:16 PM EDT
Moon 5:07 AM EDT (11/1) 4:34 PM EDT (11/1)
Length of Visible Light 11h 21m
Length of Day
10h 24m
Waning Crescent, 4% of the Moon is Illuminated
Nov 1
Waning Crescent
Nov 3
New
Nov 10
First Quarter
Nov 17
Full
Nov 25
Last Quarter

Hourly Weather History & Observations

Time (EDT) Temp. Dew Point Humidity Pressure Visibility Wind Dir Wind Speed Gust Speed Precip Events Conditions
12:54 AM 64.0 °F 61.0 °F 90% 29.85 in - SSW 13.8 mph 26.5 mph N/A   Unknown
1:54 AM 63.0 °F 61.0 °F 93% 29.82 in - South 11.5 mph 23.0 mph 0.01 in   Unknown
2:54 AM 63.0 °F 61.0 °F 93% 29.79 in - SSW 12.7 mph 24.2 mph N/A   Unknown
3:54 AM 63.0 °F 61.0 °F 93% 29.76 in - SSW 13.8 mph 27.6 mph N/A   Unknown
4:54 AM 64.0 °F 60.1 °F 87% 29.73 in - SSW 12.7 mph 24.2 mph N/A   Unknown
5:54 AM 64.9 °F 61.0 °F 87% 29.73 in - SSW 12.7 mph 25.3 mph N/A   Unknown
6:54 AM 64.9 °F 61.0 °F 87% 29.70 in - SSW 17.3 mph 27.6 mph N/A   Unknown
7:54 AM 64.9 °F 61.0 °F 87% 29.69 in - South 15.0 mph 26.5 mph N/A   Unknown
8:54 AM 64.9 °F 62.1 °F 90% 29.68 in - South 16.1 mph 28.8 mph N/A   Unknown
9:54 AM 66.0 °F 63.0 °F 90% 29.67 in - SSW 16.1 mph 32.2 mph N/A   Unknown
10:54 AM 66.0 °F 62.1 °F 87% 29.64 in - South 17.3 mph 28.8 mph N/A   Unknown
11:54 AM 66.0 °F 61.0 °F 84% 29.64 in - SSW 15.0 mph 26.5 mph N/A   Unknown
12:54 PM 64.9 °F 60.1 °F 84% 29.65 in - SW 8.1 mph - 0.01 in   Unknown
1:54 PM 61.0 °F 57.9 °F 90% 29.63 in - SSW 9.2 mph - 0.01 in   Unknown
2:54 PM 62.1 °F 57.0 °F 84% 29.61 in - SSW 11.5 mph 20.7 mph N/A   Unknown
3:54 PM 62.1 °F 57.0 °F 84% 29.60 in - SSW 9.2 mph - N/A   Unknown
4:54 PM 62.1 °F 57.0 °F 84% 29.60 in - SSW 11.5 mph 28.8 mph N/A   Unknown
5:54 PM 62.1 °F 57.0 °F 84% 29.61 in - SW 12.7 mph 21.9 mph N/A   Unknown
6:54 PM 62.1 °F 55.9 °F 80% 29.65 in - SW 6.9 mph 19.6 mph N/A   Unknown
7:54 PM 62.1 °F 57.0 °F 84% 29.65 in - SW 8.1 mph - N/A   Unknown
8:54 PM 62.1 °F 57.0 °F 84% 29.67 in - SW 9.2 mph 20.7 mph N/A   Unknown
9:54 PM 62.1 °F 57.9 °F 86% 29.68 in - SW 8.1 mph 18.4 mph N/A   Unknown
10:54 PM 62.1 °F 57.0 °F 84% 29.69 in - SSW 8.1 mph - N/A   Unknown
11:54 PM 63.0 °F 57.0 °F 81% 29.68 in - WSW 9.2 mph - N/A   Unknown